Time,TemperatureF,DewpointF,PressureIn,WindDirection,WindDirectionDegrees,WindSpeedMPH,WindSpeedGustMPH,Humidity,HourlyPrecipIn,Conditions,Clouds,dailyrainin,SoftwareType,DateUTC
2013-10-13 00:02:00,47.0,33.8,30.22,WNW,285,0.0,8.0,60,0.00,,,0.00,Wunderground v.1.15,2013-10-13 05:02:00,
2013-10-13 00:07:00,46.8,34.0,30.23,WNW,285,0.0,8.0,61,0.00,,,0.00,Wunderground v.1.15,2013-10-13 05:07:00,
2013-10-13 00:14:00,46.6,33.9,30.23,WNW,290,0.0,8.0,61,0.00,,,0.00,Wunderground v.1.15,2013-10-13 05:14:00,
2013-10-13 00:19:00,46.4,34.1,30.23,West,267,0.0,8.0,62,0.00,,,0.00,Wunderground v.1.15,2013-10-13 05:19:00,
2013-10-13 00:26:00,46.4,33.7,30.23,WNW,284,0.0,8.0,61,0.00,,,0.00,Wunderground v.1.15,2013-10-13 05:26:00,
2013-10-13 00:31:00,46.2,33.5,30.24,West,270,0.0,8.0,61,0.00,,,0.00,Wunderground v.1.15,2013-10-13 05:31:00,
2013-10-13 00:38:00,46.0,33.7,30.24,WSW,250,0.0,8.0,62,0.00,,,0.00,Wunderground v.1.15,2013-10-13 05:38:00,
2013-10-13 00:43:00,45.7,33.4,30.24,West,259,0.0,8.0,62,0.00,,,0.00,Wunderground v.1.15,2013-10-13 05:43:00,
2013-10-13 00:50:00,45.5,33.6,30.25,West,259,0.0,8.0,63,0.00,,,0.00,Wunderground v.1.15,2013-10-13 05:50:00,
2013-10-13 00:55:00,45.1,33.6,30.25,West,259,0.0,8.0,64,0.00,,,0.00,Wunderground v.1.15,2013-10-13 05:55:00,
2013-10-13 01:01:00,44.6,33.2,30.25,West,259,0.0,8.0,64,0.00,,,0.00,Wunderground v.1.15,2013-10-13 06:01:00,
2013-10-13 01:08:00,44.1,33.5,30.25,West,259,0.0,8.0,66,0.00,,,0.00,Wunderground v.1.15,2013-10-13 06:08:00,
2013-10-13 01:13:00,44.1,33.5,30.26,West,259,0.0,8.0,66,0.00,,,0.00,Wunderground v.1.15,2013-10-13 06:13:00,
2013-10-13 01:20:00,43.8,33.9,30.26,West,259,0.0,8.0,68,0.00,,,0.00,Wunderground v.1.15,2013-10-13 06:20:00,
2013-10-13 01:25:00,43.3,33.8,30.26,WNW,298,0.0,8.0,69,0.00,,,0.00,Wunderground v.1.15,2013-10-13 06:25:00,
2013-10-13 01:32:00,43.0,33.5,30.26,WNW,298,0.0,8.0,69,0.00,,,0.00,Wunderground v.1.15,2013-10-13 06:32:00,
2013-10-13 01:38:00,42.9,33.4,30.27,NW,321,0.0,8.0,69,0.00,,,0.00,Wunderground v.1.15,2013-10-13 06:38:00,
2013-10-13 01:44:00,43.0,33.5,30.27,NW,321,0.0,8.0,69,0.00,,,0.00,Wunderground v.1.15,2013-10-13 06:44:00,
2013-10-13 01:50:00,42.9,33.4,30.27,NW,321,0.0,8.0,69,0.00,,,0.00,Wunderground v.1.15,2013-10-13 06:50:00,
2013-10-13 01:55:00,42.8,33.3,30.27,NW,321,0.0,8.0,69,0.00,,,0.00,Wunderground v.1.15,2013-10-13 06:55:00,
2013-10-13 02:02:00,42.5,33.4,30.27,NW,321,0.0,8.0,70,0.00,,,0.00,Wunderground v.1.15,2013-10-13 07:02:00,
2013-10-13 02:08:00,42.3,33.6,30.28,NW,319,0.0,8.0,71,0.00,,,0.00,Wunderground v.1.15,2013-10-13 07:08:00,
2013-10-13 02:14:00,42.1,33.4,30.28,NW,319,0.0,8.0,71,0.00,,,0.00,Wunderground v.1.15,2013-10-13 07:14:00,
2013-10-13 02:20:00,42.2,33.5,30.28,SSW,211,0.0,8.0,71,0.00,,,0.00,Wunderground v.1.15,2013-10-13 07:20:00,
2013-10-13 02:25:00,42.2,33.5,30.29,SSW,211,0.0,8.0,71,0.00,,,0.00,Wunderground v.1.15,2013-10-13 07:25:00,
2013-10-13 02:32:00,42.1,33.4,30.29,SSW,210,0.0,8.0,71,0.00,,,0.00,Wunderground v.1.15,2013-10-13 07:32:00,
2013-10-13 02:37:00,41.8,33.4,30.29,West,277,0.0,8.0,72,0.00,,,0.00,Wunderground v.1.15,2013-10-13 07:37:00,
2013-10-13 02:44:00,41.6,33.2,30.29,West,276,0.0,8.0,72,0.00,,,0.00,Wunderground v.1.15,2013-10-13 07:44:00,
2013-10-13 02:49:00,41.3,33.3,30.29,West,276,0.0,8.0,73,0.00,,,0.00,Wunderground v.1.15,2013-10-13 07:49:00,
2013-10-13 02:56:00,41.2,33.2,30.29,WNW,290,0.0,8.0,73,0.00,,,0.00,Wunderground v.1.15,2013-10-13 07:56:00,
2013-10-13 03:02:00,41.2,33.2,30.29,WNW,290,0.0,8.0,73,0.00,,,0.00,Wunderground v.1.15,2013-10-13 08:02:00,
2013-10-13 03:08:00,41.1,33.4,30.29,WNW,290,0.0,8.0,74,0.00,,,0.00,Wunderground v.1.15,2013-10-13 08:08:00,
2013-10-13 03:14:00,40.9,33.2,30.30,WNW,290,0.0,8.0,74,0.00,,,0.00,Wunderground v.1.15,2013-10-13 08:14:00,
2013-10-13 03:19:00,41.1,33.1,30.30,WNW,290,0.0,8.0,73,0.00,,,0.00,Wunderground v.1.15,2013-10-13 08:19:00,
2013-10-13 03:26:00,40.9,33.2,30.30,WNW,290,0.0,8.0,74,0.00,,,0.00,Wunderground v.1.15,2013-10-13 08:26:00,
2013-10-13 03:31:00,40.7,33.1,30.30,WNW,290,0.0,8.0,74,0.00,,,0.00,Wunderground v.1.15,2013-10-13 08:31:00,
2013-10-13 03:38:00,40.4,33.1,30.30,WNW,290,0.0,8.0,75,0.00,,,0.00,Wunderground v.1.15,2013-10-13 08:38:00,
2013-10-13 03:44:00,40.0,33.0,30.31,WNW,290,0.0,8.0,76,0.00,,,0.00,Wunderground v.1.15,2013-10-13 08:44:00,
2013-10-13 03:49:00,39.9,33.3,30.31,WNW,290,0.0,8.0,77,0.00,,,0.00,Wunderground v.1.15,2013-10-13 08:49:00,
2013-10-13 03:56:00,40.0,33.0,30.31,WNW,290,0.0,8.0,76,0.00,,,0.00,Wunderground v.1.15,2013-10-13 08:56:00,
2013-10-13 04:01:00,39.9,33.3,30.31,WNW,290,0.0,8.0,77,0.00,,,0.00,Wunderground v.1.15,2013-10-13 09:01:00,
2013-10-13 04:08:00,39.7,33.1,30.31,WNW,290,0.0,8.0,77,0.00,,,0.00,Wunderground v.1.15,2013-10-13 09:08:00,
2013-10-13 04:13:00,39.7,33.1,30.32,WNW,290,0.0,8.0,77,0.00,,,0.00,Wunderground v.1.15,2013-10-13 09:13:00,
2013-10-13 04:20:00,39.5,32.9,30.32,WNW,290,0.0,8.0,77,0.00,,,0.00,Wunderground v.1.15,2013-10-13 09:20:00,
2013-10-13 04:26:00,39.2,32.9,30.32,WNW,290,0.0,8.0,78,0.00,,,0.00,Wunderground v.1.15,2013-10-13 09:26:00,
2013-10-13 04:31:00,39.2,32.9,30.32,WNW,290,0.0,8.0,78,0.00,,,0.00,Wunderground v.1.15,2013-10-13 09:31:00,
2013-10-13 04:38:00,39.0,33.0,30.33,WNW,290,0.0,8.0,79,0.00,,,0.00,Wunderground v.1.15,2013-10-13 09:38:00,
2013-10-13 04:43:00,38.9,33.3,30.32,WNW,290,0.0,8.0,80,0.00,,,0.00,Wunderground v.1.15,2013-10-13 09:43:00,
2013-10-13 04:50:00,38.6,33.0,30.33,WNW,290,0.0,8.0,80,0.00,,,0.00,Wunderground v.1.15,2013-10-13 09:50:00,
2013-10-13 04:55:00,38.4,33.1,30.33,WNW,290,0.0,8.0,81,0.00,,,0.00,Wunderground v.1.15,2013-10-13 09:55:00,
2013-10-13 05:02:00,38.4,33.1,30.33,WNW,290,0.0,8.0,81,0.00,,,0.00,Wunderground v.1.15,2013-10-13 10:02:00,
2013-10-13 05:08:00,38.2,33.2,30.33,WNW,290,0.0,8.0,82,0.00,,,0.00,Wunderground v.1.15,2013-10-13 10:08:00,
2013-10-13 05:14:00,37.9,32.9,30.33,WNW,290,0.0,8.0,82,0.00,,,0.00,Wunderground v.1.15,2013-10-13 10:14:00,
2013-10-13 05:20:00,37.8,33.1,30.34,WNW,290,0.0,8.0,83,0.00,,,0.00,Wunderground v.1.15,2013-10-13 10:20:00,
2013-10-13 05:25:00,37.8,32.8,30.34,WNW,290,0.0,8.0,82,0.00,,,0.00,Wunderground v.1.15,2013-10-13 10:25:00,
2013-10-13 05:32:00,37.8,33.1,30.34,WNW,290,0.0,8.0,83,0.00,,,0.00,Wunderground v.1.15,2013-10-13 10:32:00,
2013-10-13 05:37:00,37.7,33.0,30.34,WNW,290,0.0,8.0,83,0.00,,,0.00,Wunderground v.1.15,2013-10-13 10:37:00,
2013-10-13 05:44:00,37.6,32.9,30.34,WNW,290,0.0,8.0,83,0.00,,,0.00,Wunderground v.1.15,2013-10-13 10:44:00,
2013-10-13 05:50:00,37.3,32.9,30.35,WNW,290,0.0,8.0,84,0.00,,,0.00,Wunderground v.1.15,2013-10-13 10:50:00,
2013-10-13 05:55:00,37.2,33.1,30.35,WNW,290,0.0,8.0,85,0.00,,,0.00,Wunderground v.1.15,2013-10-13 10:55:00,
2013-10-13 06:02:00,37.0,32.9,30.35,WNW,290,0.0,8.0,85,0.00,,,0.00,Wunderground v.1.15,2013-10-13 11:02:00,
2013-10-13 06:07:00,36.8,33.0,30.35,WNW,290,0.0,8.0,86,0.00,,,0.00,Wunderground v.1.15,2013-10-13 11:07:00,
2013-10-13 06:14:00,36.7,32.9,30.35,WNW,290,0.0,8.0,86,0.00,,,0.00,Wunderground v.1.15,2013-10-13 11:14:00,
2013-10-13 06:19:00,36.7,32.9,30.36,WNW,290,0.0,8.0,86,0.00,,,0.00,Wunderground v.1.15,2013-10-13 11:19:00,
2013-10-13 06:26:00,36.5,33.0,30.36,WNW,290,0.0,8.0,87,0.00,,,0.00,Wunderground v.1.15,2013-10-13 11:26:00,
2013-10-13 06:32:00,36.3,32.8,30.36,WNW,290,0.0,8.0,87,0.00,,,0.00,Wunderground v.1.15,2013-10-13 11:32:00,
2013-10-13 06:38:00,36.3,32.8,30.37,WNW,290,0.0,8.0,87,0.00,,,0.00,Wunderground v.1.15,2013-10-13 11:38:00,
2013-10-13 06:44:00,36.5,33.0,30.37,WNW,290,0.0,8.0,87,0.00,,,0.00,Wunderground v.1.15,2013-10-13 11:44:00,
2013-10-13 06:49:00,36.7,32.9,30.37,WNW,290,0.0,8.0,86,0.00,,,0.00,Wunderground v.1.15,2013-10-13 11:49:00,
2013-10-13 06:56:00,36.8,32.7,30.37,WNW,290,0.0,8.0,85,0.00,,,0.00,Wunderground v.1.15,2013-10-13 11:56:00,
2013-10-13 07:01:00,36.8,32.7,30.37,WNW,290,0.0,8.0,85,0.00,,,0.00,Wunderground v.1.15,2013-10-13 12:01:00,
2013-10-13 07:08:00,36.8,32.7,30.38,WNW,290,0.0,8.0,85,0.00,,,0.00,Wunderground v.1.15,2013-10-13 12:08:00,
2013-10-13 07:13:00,36.6,32.5,30.38,WNW,290,0.0,8.0,85,0.00,,,0.00,Wunderground v.1.15,2013-10-13 12:13:00,
2013-10-13 07:19:00,36.5,32.7,30.38,WNW,290,0.0,8.0,86,0.00,,,0.00,Wunderground v.1.15,2013-10-13 12:19:00,
2013-10-13 07:26:00,36.4,32.9,30.38,WNW,290,0.0,8.0,87,0.00,,,0.00,Wunderground v.1.15,2013-10-13 12:26:00,
2013-10-13 07:31:00,36.3,32.5,30.38,WNW,290,0.0,8.0,86,0.00,,,0.00,Wunderground v.1.15,2013-10-13 12:31:00,
2013-10-13 07:38:00,36.7,32.9,30.39,WNW,290,0.0,8.0,86,0.00,,,0.00,Wunderground v.1.15,2013-10-13 12:38:00,
2013-10-13 07:43:00,36.6,32.8,30.39,WNW,290,0.0,8.0,86,0.00,,,0.00,Wunderground v.1.15,2013-10-13 12:43:00,
2013-10-13 07:50:00,36.9,33.4,30.39,WNW,290,0.0,8.0,87,0.00,,,0.00,Wunderground v.1.15,2013-10-13 12:50:00,
2013-10-13 07:56:00,37.2,33.4,30.39,WNW,290,0.0,8.0,86,0.00,,,0.00,Wunderground v.1.15,2013-10-13 12:56:00,
2013-10-13 08:02:00,37.2,33.4,30.39,WNW,290,0.0,8.0,86,0.00,,,0.00,Wunderground v.1.15,2013-10-13 13:02:00,
2013-10-13 08:08:00,37.5,33.4,30.40,WNW,290,0.0,8.0,85,0.00,,,0.00,Wunderground v.1.15,2013-10-13 13:08:00,
2013-10-13 08:13:00,37.8,33.7,30.40,WNW,290,0.0,8.0,85,0.00,,,0.00,Wunderground v.1.15,2013-10-13 13:13:00,
2013-10-13 08:20:00,38.3,33.9,30.40,WNW,290,0.0,8.0,84,0.00,,,0.00,Wunderground v.1.15,2013-10-13 13:20:00,
2013-10-13 08:25:00,38.8,34.1,30.41,WNW,290,0.0,8.0,83,0.00,,,0.00,Wunderground v.1.15,2013-10-13 13:25:00,
2013-10-13 08:32:00,39.4,34.7,30.41,WNW,290,0.0,8.0,83,0.00,,,0.00,Wunderground v.1.15,2013-10-13 13:32:00,
2013-10-13 08:37:00,40.4,34.7,30.41,NE,40,0.0,8.0,80,0.00,,,0.00,Wunderground v.1.15,2013-10-13 13:37:00,
2013-10-13 08:43:00,41.2,35.2,30.42,NNE,18,0.0,8.0,79,0.00,,,0.00,Wunderground v.1.15,2013-10-13 13:43:00,
2013-10-13 08:50:00,41.9,35.2,30.42,NE,44,0.0,8.0,77,0.00,,,0.00,Wunderground v.1.15,2013-10-13 13:50:00,
2013-10-13 08:55:00,42.5,35.8,30.42,NE,51,0.0,8.0,77,0.00,,,0.00,Wunderground v.1.15,2013-10-13 13:55:00,
2013-10-13 09:02:00,43.2,35.8,30.42,East,90,0.0,8.0,75,0.00,,,0.00,Wunderground v.1.15,2013-10-13 14:02:00,
2013-10-13 09:07:00,43.7,36.0,30.43,West,273,0.0,8.0,74,0.00,,,0.00,Wunderground v.1.15,2013-10-13 14:07:00,
2013-10-13 09:14:00,44.4,35.9,30.43,NNE,20,0.0,8.0,72,0.00,,,0.00,Wunderground v.1.15,2013-10-13 14:14:00,
2013-10-13 09:20:00,45.2,36.0,30.43,ESE,103,1.0,8.0,70,0.00,,,0.00,Wunderground v.1.15,2013-10-13 14:20:00,
2013-10-13 09:26:00,45.9,36.7,30.43,NE,39,1.0,8.0,70,0.00,,,0.00,Wunderground v.1.15,2013-10-13 14:26:00,
2013-10-13 09:32:00,46.4,36.8,30.44,NE,54,1.0,8.0,69,0.00,,,0.00,Wunderground v.1.15,2013-10-13 14:32:00,
2013-10-13 09:37:00,46.8,36.4,30.44,North,9,1.0,8.0,67,0.00,,,0.00,Wunderground v.1.15,2013-10-13 14:37:00,
2013-10-13 09:44:00,47.1,35.9,30.44,NNW,338,1.0,8.0,65,0.00,,,0.00,Wunderground v.1.15,2013-10-13 14:44:00,
2013-10-13 09:50:00,47.5,36.7,30.45,West,281,1.0,1.0,66,0.00,,,0.00,Wunderground v.1.15,2013-10-13 14:50:00,
2013-10-13 09:56:00,47.9,37.1,30.45,ENE,60,0.0,8.0,66,0.00,,,0.00,Wunderground v.1.15,2013-10-13 14:56:00,
2013-10-13 10:02:00,48.4,36.8,30.45,WSW,248,0.0,8.0,64,0.00,,,0.00,Wunderground v.1.15,2013-10-13 15:02:00,
2013-10-13 10:07:00,48.7,37.1,30.45,NE,46,0.0,8.0,64,0.00,,,0.00,Wunderground v.1.15,2013-10-13 15:07:00,
2013-10-13 10:14:00,49.1,37.0,30.46,SW,224,0.0,8.0,63,0.00,,,0.00,Wunderground v.1.15,2013-10-13 15:14:00,
2013-10-13 10:19:00,49.5,37.0,30.46,NE,36,0.0,8.0,62,0.00,,,0.00,Wunderground v.1.15,2013-10-13 15:19:00,
2013-10-13 10:26:00,50.0,37.1,30.46,WNW,285,0.0,8.0,61,0.00,,,0.00,Wunderground v.1.15,2013-10-13 15:26:00,
2013-10-13 10:31:00,50.5,38.0,30.46,NE,50,1.0,2.0,62,0.00,,,0.00,Wunderground v.1.15,2013-10-13 15:31:00,
2013-10-13 10:38:00,51.3,37.9,30.46,ENE,77,1.0,8.0,60,0.00,,,0.00,Wunderground v.1.15,2013-10-13 15:38:00,
2013-10-13 10:44:00,51.8,38.3,30.46,NNE,22,1.0,8.0,60,0.00,,,0.00,Wunderground v.1.15,2013-10-13 15:44:00,
2013-10-13 10:49:00,52.4,38.5,30.46,WSW,242,0.0,8.0,59,0.00,,,0.00,Wunderground v.1.15,2013-10-13 15:49:00,
2013-10-13 10:56:00,52.8,37.1,30.46,East,86,0.0,8.0,55,0.00,,,0.00,Wunderground v.1.15,2013-10-13 15:56:00,
2013-10-13 11:01:00,53.3,37.5,30.46,ENE,58,1.0,8.0,55,0.00,,,0.00,Wunderground v.1.15,2013-10-13 16:01:00,
2013-10-13 11:08:00,53.7,36.5,30.46,NNE,20,0.0,8.0,52,0.00,,,0.00,Wunderground v.1.15,2013-10-13 16:08:00,
2013-10-13 11:14:00,54.0,36.3,30.46,NNE,13,0.0,8.0,51,0.00,,,0.00,Wunderground v.1.15,2013-10-13 16:14:00,
2013-10-13 11:20:00,54.6,36.3,30.46,ENE,71,2.0,8.0,50,0.00,,,0.00,Wunderground v.1.15,2013-10-13 16:20:00,
2013-10-13 11:26:00,55.0,34.6,30.46,NNW,343,3.0,8.0,46,0.00,,,0.00,Wunderground v.1.15,2013-10-13 16:26:00,
2013-10-13 11:31:00,55.4,33.8,30.46,NNE,13,1.0,8.0,44,0.00,,,0.00,Wunderground v.1.15,2013-10-13 16:31:00,
2013-10-13 11:38:00,55.7,35.8,30.46,SW,228,1.0,8.0,47,0.00,,,0.00,Wunderground v.1.15,2013-10-13 16:38:00,
2013-10-13 11:43:00,55.9,32.5,30.46,East,98,2.0,8.0,41,0.00,,,0.00,Wunderground v.1.15,2013-10-13 16:43:00,
2013-10-13 11:50:00,55.8,33.0,30.46,NE,34,3.0,3.0,42,0.00,,,0.00,Wunderground v.1.15,2013-10-13 16:50:00,
2013-10-13 11:55:00,56.1,33.3,30.45,NNE,29,3.0,8.0,42,0.00,,,0.00,Wunderground v.1.15,2013-10-13 16:55:00,
2013-10-13 12:02:00,56.2,34.6,30.45,NW,314,2.0,8.0,44,0.00,,,0.00,Wunderground v.1.15,2013-10-13 17:02:00,
2013-10-13 12:08:00,56.4,34.2,30.45,NW,315,1.0,8.0,43,0.00,,,0.00,Wunderground v.1.15,2013-10-13 17:08:00,
2013-10-13 12:13:00,56.6,35.5,30.45,North,356,1.0,8.0,45,0.00,,,0.00,Wunderground v.1.15,2013-10-13 17:13:00,
2013-10-13 12:20:00,56.7,35.0,30.45,NE,53,1.0,1.0,44,0.00,,,0.00,Wunderground v.1.15,2013-10-13 17:20:00,
2013-10-13 12:25:00,57.0,36.4,30.45,ENE,60,1.0,8.0,46,0.00,,,0.00,Wunderground v.1.15,2013-10-13 17:25:00,
2013-10-13 12:32:00,57.0,34.7,30.45,NE,49,2.0,8.0,43,0.00,,,0.00,Wunderground v.1.15,2013-10-13 17:32:00,
2013-10-13 12:37:00,57.2,35.5,30.44,NNE,32,1.0,8.0,44,0.00,,,0.00,Wunderground v.1.15,2013-10-13 17:37:00,
2013-10-13 12:44:00,58.0,33.8,30.44,NNE,18,1.0,8.0,40,0.00,,,0.00,Wunderground v.1.15,2013-10-13 17:44:00,
2013-10-13 12:50:00,58.1,33.2,30.44,North,356,1.0,1.0,39,0.00,,,0.00,Wunderground v.1.15,2013-10-13 17:50:00,
2013-10-13 12:55:00,58.4,34.2,30.43,SW,222,0.0,8.0,40,0.00,,,0.00,Wunderground v.1.15,2013-10-13 17:55:00,
2013-10-13 13:02:00,58.8,33.2,30.43,NW,315,1.0,8.0,38,0.00,,,0.00,Wunderground v.1.15,2013-10-13 18:02:00,
2013-10-13 13:07:00,58.9,32.7,30.43,ENE,60,2.0,8.0,37,0.00,,,0.00,Wunderground v.1.15,2013-10-13 18:07:00,
2013-10-13 13:14:00,58.8,31.9,30.42,WNW,284,2.0,8.0,36,0.00,,,0.00,Wunderground v.1.15,2013-10-13 18:14:00,
2013-10-13 13:19:00,58.9,32.7,30.42,WSW,240,2.0,8.0,37,0.00,,,0.00,Wunderground v.1.15,2013-10-13 18:19:00,
2013-10-13 13:26:00,59.6,31.9,30.42,NW,323,2.0,8.0,35,0.00,,,0.00,Wunderground v.1.15,2013-10-13 18:26:00,
2013-10-13 13:32:00,60.0,31.5,30.41,NNE,13,1.0,8.0,34,0.00,,,0.00,Wunderground v.1.15,2013-10-13 18:32:00,
2013-10-13 13:38:00,60.1,32.3,30.41,NE,49,1.0,8.0,35,0.00,,,0.00,Wunderground v.1.15,2013-10-13 18:38:00,
2013-10-13 13:44:00,59.9,32.2,30.41,WSW,250,1.0,8.0,35,0.00,,,0.00,Wunderground v.1.15,2013-10-13 18:44:00,
2013-10-13 13:49:00,60.3,31.8,30.40,NNE,25,1.0,8.0,34,0.00,,,0.00,Wunderground v.1.15,2013-10-13 18:49:00,
2013-10-13 13:56:00,60.1,32.3,30.40,NE,44,2.0,8.0,35,0.00,,,0.00,Wunderground v.1.15,2013-10-13 18:56:00,
2013-10-13 14:01:00,60.5,32.7,30.40,NW,311,2.0,8.0,35,0.00,,,0.00,Wunderground v.1.15,2013-10-13 19:01:00,
2013-10-13 14:08:00,60.9,31.6,30.40,NNW,338,2.0,8.0,33,0.00,,,0.00,Wunderground v.1.15,2013-10-13 19:08:00,
2013-10-13 14:13:00,60.3,31.0,30.40,NNE,32,2.0,8.0,33,0.00,,,0.00,Wunderground v.1.15,2013-10-13 19:13:00,
2013-10-13 14:20:00,60.5,33.4,30.40,ENE,73,2.0,8.0,36,0.00,,,0.00,Wunderground v.1.15,2013-10-13 19:20:00,
2013-10-13 14:25:00,61.0,33.1,30.39,NW,314,1.0,8.0,35,0.00,,,0.00,Wunderground v.1.15,2013-10-13 19:25:00,
2013-10-13 14:32:00,61.5,32.8,30.39,SW,217,1.0,2.0,34,0.00,,,0.00,Wunderground v.1.15,2013-10-13 19:32:00,
2013-10-13 14:37:00,61.8,32.4,30.39,SW,226,1.0,8.0,33,0.00,,,0.00,Wunderground v.1.15,2013-10-13 19:37:00,
2013-10-13 14:43:00,61.6,32.9,30.39,WNW,291,2.0,8.0,34,0.00,,,0.00,Wunderground v.1.15,2013-10-13 19:43:00,
2013-10-13 14:50:00,62.0,33.3,30.39,NW,316,1.0,8.0,34,0.00,,,0.00,Wunderground v.1.15,2013-10-13 19:50:00,
2013-10-13 14:55:00,62.2,32.0,30.39,WNW,295,1.0,8.0,32,0.00,,,0.00,Wunderground v.1.15,2013-10-13 19:55:00,
2013-10-13 15:02:00,62.3,31.3,30.39,NE,49,1.0,8.0,31,0.00,,,0.00,Wunderground v.1.15,2013-10-13 20:02:00,
2013-10-13 15:07:00,62.3,32.0,30.39,West,277,1.0,8.0,32,0.00,,,0.00,Wunderground v.1.15,2013-10-13 20:07:00,
2013-10-13 15:14:00,63.2,32.0,30.39,North,355,1.0,8.0,31,0.00,,,0.00,Wunderground v.1.15,2013-10-13 20:14:00,
2013-10-13 15:19:00,63.2,32.0,30.39,West,278,1.0,8.0,31,0.00,,,0.00,Wunderground v.1.15,2013-10-13 20:19:00,
2013-10-13 15:26:00,63.2,32.0,30.39,WNW,290,1.0,8.0,31,0.00,,,0.00,Wunderground v.1.15,2013-10-13 20:26:00,
2013-10-13 15:32:00,63.7,31.7,30.39,WSW,239,1.0,6.0,30,0.00,,,0.00,Wunderground v.1.15,2013-10-13 20:32:00,
2013-10-13 15:37:00,63.4,32.2,30.39,NE,56,1.0,8.0,31,0.00,,,0.00,Wunderground v.1.15,2013-10-13 20:37:00,
2013-10-13 15:44:00,63.2,31.2,30.39,NNE,30,1.0,8.0,30,0.00,,,0.00,Wunderground v.1.15,2013-10-13 20:44:00,
2013-10-13 15:49:00,63.1,31.1,30.39,North,4,1.0,1.0,30,0.00,,,0.00,Wunderground v.1.15,2013-10-13 20:49:00,
2013-10-13 15:56:00,63.3,31.3,30.39,NE,39,1.0,8.0,30,0.00,,,0.00,Wunderground v.1.15,2013-10-13 20:56:00,
2013-10-13 16:01:00,62.7,30.8,30.39,East,81,1.0,8.0,30,0.00,,,0.00,Wunderground v.1.15,2013-10-13 21:01:00,
2013-10-13 16:08:00,63.3,31.3,30.39,SW,222,1.0,8.0,30,0.00,,,0.00,Wunderground v.1.15,2013-10-13 21:08:00,
2013-10-13 16:13:00,63.9,31.8,30.39,SE,134,0.0,8.0,30,0.00,,,0.00,Wunderground v.1.15,2013-10-13 21:13:00,
2013-10-13 16:20:00,63.9,31.8,30.39,SSW,200,0.0,8.0,30,0.00,,,0.00,Wunderground v.1.15,2013-10-13 21:20:00,
2013-10-13 16:25:00,64.5,31.5,30.39,East,101,0.0,8.0,29,0.00,,,0.00,Wunderground v.1.15,2013-10-13 21:25:00,
2013-10-13 16:32:00,64.4,30.6,30.38,SE,125,0.0,8.0,28,0.00,,,0.00,Wunderground v.1.15,2013-10-13 21:32:00,
2013-10-13 16:37:00,64.3,33.0,30.38,SE,125,0.0,8.0,31,0.00,,,0.00,Wunderground v.1.15,2013-10-13 21:37:00,
2013-10-13 16:43:00,65.0,31.9,30.38,West,265,0.0,8.0,29,0.00,,,0.00,Wunderground v.1.15,2013-10-13 21:43:00,
2013-10-13 16:50:00,64.2,31.3,30.38,NNE,18,0.0,8.0,29,0.00,,,0.00,Wunderground v.1.15,2013-10-13 21:50:00,
2013-10-13 16:55:00,63.7,30.8,30.38,SW,214,0.0,8.0,29,0.00,,,0.00,Wunderground v.1.15,2013-10-13 21:55:00,
2013-10-13 17:02:00,64.1,31.2,30.38,NE,44,0.0,8.0,29,0.00,,,0.00,Wunderground v.1.15,2013-10-13 22:02:00,
2013-10-13 17:07:00,63.5,31.5,30.38,ENE,63,0.0,8.0,30,0.00,,,0.00,Wunderground v.1.15,2013-10-13 22:07:00,
2013-10-13 17:14:00,63.8,31.7,30.38,WNW,297,0.0,8.0,30,0.00,,,0.00,Wunderground v.1.15,2013-10-13 22:14:00,
2013-10-13 17:20:00,63.4,31.4,30.38,WSW,246,1.0,1.0,30,0.00,,,0.00,Wunderground v.1.15,2013-10-13 22:20:00,
2013-10-13 17:26:00,64.1,32.0,30.38,WSW,246,1.0,8.0,30,0.00,,,0.00,Wunderground v.1.15,2013-10-13 22:26:00,
2013-10-13 17:32:00,64.1,32.0,30.38,WSW,246,0.0,8.0,30,0.00,,,0.00,Wunderground v.1.15,2013-10-13 22:32:00,
2013-10-13 17:37:00,64.9,31.9,30.38,WSW,246,0.0,8.0,29,0.00,,,0.00,Wunderground v.1.15,2013-10-13 22:37:00,
2013-10-13 17:44:00,64.8,31.8,30.38,WSW,246,0.0,8.0,29,0.00,,,0.00,Wunderground v.1.15,2013-10-13 22:44:00,
2013-10-13 17:49:00,65.1,32.9,30.38,WSW,246,0.0,8.0,30,0.00,,,0.00,Wunderground v.1.15,2013-10-13 22:49:00,
2013-10-13 17:56:00,65.2,33.0,30.38,WSW,246,0.0,8.0,30,0.00,,,0.00,Wunderground v.1.15,2013-10-13 22:56:00,
2013-10-13 18:01:00,64.5,33.2,30.38,WSW,246,0.0,8.0,31,0.00,,,0.00,Wunderground v.1.15,2013-10-13 23:01:00,
2013-10-13 18:07:00,63.1,35.0,30.38,WSW,246,0.0,8.0,35,0.00,,,0.00,Wunderground v.1.15,2013-10-13 23:07:00,
2013-10-13 18:14:00,61.6,35.1,30.38,WSW,246,0.0,8.0,37,0.00,,,0.00,Wunderground v.1.15,2013-10-13 23:14:00,
2013-10-13 18:19:00,60.8,36.3,30.38,WSW,247,0.0,8.0,40,0.00,,,0.00,Wunderground v.1.15,2013-10-13 23:19:00,
2013-10-13 18:26:00,58.8,35.7,30.38,WSW,246,0.0,8.0,42,0.00,,,0.00,Wunderground v.1.15,2013-10-13 23:26:00,
2013-10-13 18:31:00,57.2,35.5,30.38,WSW,246,0.0,8.0,44,0.00,,,0.00,Wunderground v.1.15,2013-10-13 23:31:00,
2013-10-13 18:38:00,56.1,36.1,30.38,WSW,246,0.0,8.0,47,0.00,,,0.00,Wunderground v.1.15,2013-10-13 23:38:00,
2013-10-13 18:43:00,55.0,35.7,30.38,WSW,246,0.0,8.0,48,0.00,,,0.00,Wunderground v.1.15,2013-10-13 23:43:00,
2013-10-13 18:50:00,53.9,35.2,30.38,WSW,246,0.0,8.0,49,0.00,,,0.00,Wunderground v.1.15,2013-10-13 23:50:00,
2013-10-13 18:56:00,53.0,35.8,30.38,WSW,246,0.0,8.0,52,0.00,,,0.00,Wunderground v.1.15,2013-10-13 23:56:00,
2013-10-13 19:01:00,52.4,35.8,30.38,WSW,246,0.0,8.0,53,0.00,,,0.00,Wunderground v.1.15,2013-10-14 00:01:00,
2013-10-13 19:08:00,51.7,36.0,30.38,WSW,246,0.0,8.0,55,0.00,,,0.00,Wunderground v.1.15,2013-10-14 00:08:00,
2013-10-13 19:13:00,51.1,35.9,30.38,WSW,246,0.0,8.0,56,0.00,,,0.00,Wunderground v.1.15,2013-10-14 00:13:00,
2013-10-13 19:20:00,50.5,35.8,30.38,WSW,245,0.0,8.0,57,0.00,,,0.00,Wunderground v.1.15,2013-10-14 00:20:00,
2013-10-13 19:25:00,50.0,35.8,30.38,WSW,246,0.0,8.0,58,0.00,,,0.00,Wunderground v.1.15,2013-10-14 00:25:00,
2013-10-13 19:32:00,49.4,34.8,30.38,WSW,245,0.0,8.0,57,0.00,,,0.00,Wunderground v.1.15,2013-10-14 00:32:00,
2013-10-13 19:37:00,49.1,36.2,30.38,WSW,246,0.0,8.0,61,0.00,,,0.00,Wunderground v.1.15,2013-10-14 00:37:00,
2013-10-13 19:44:00,48.7,36.7,30.38,WSW,245,0.0,8.0,63,0.00,,,0.00,Wunderground v.1.15,2013-10-14 00:44:00,
2013-10-13 19:50:00,48.5,36.5,30.38,WSW,245,0.0,8.0,63,0.00,,,0.00,Wunderground v.1.15,2013-10-14 00:50:00,
2013-10-13 19:56:00,48.3,36.7,30.39,WSW,245,0.0,8.0,64,0.00,,,0.00,Wunderground v.1.15,2013-10-14 00:56:00,
2013-10-13 20:01:00,48.0,36.4,30.39,WSW,245,0.0,8.0,64,0.00,,,0.00,Wunderground v.1.15,2013-10-14 01:01:00,
2013-10-13 20:07:00,47.7,36.5,30.39,WSW,246,0.0,8.0,65,0.00,,,0.00,Wunderground v.1.15,2013-10-14 01:07:00,
2013-10-13 20:14:00,47.2,36.4,30.39,WSW,245,0.0,8.0,66,0.00,,,0.00,Wunderground v.1.15,2013-10-14 01:14:00,
2013-10-13 20:19:00,46.7,35.9,30.39,WSW,245,0.0,8.0,66,0.00,,,0.00,Wunderground v.1.15,2013-10-14 01:19:00,
2013-10-13 20:26:00,46.4,36.0,30.39,WSW,246,0.0,8.0,67,0.00,,,0.00,Wunderground v.1.15,2013-10-14 01:26:00,
2013-10-13 20:31:00,46.3,36.3,30.39,WSW,246,0.0,8.0,68,0.00,,,0.00,Wunderground v.1.15,2013-10-14 01:31:00,
2013-10-13 20:38:00,46.1,36.5,30.39,WSW,246,0.0,8.0,69,0.00,,,0.00,Wunderground v.1.15,2013-10-14 01:38:00,
2013-10-13 20:44:00,45.8,37.3,30.40,WSW,246,0.0,8.0,72,0.00,,,0.00,Wunderground v.1.15,2013-10-14 01:44:00,
2013-10-13 20:50:00,45.5,37.3,30.40,WSW,246,0.0,8.0,73,0.00,,,0.00,Wunderground v.1.15,2013-10-14 01:50:00,
2013-10-13 20:55:00,45.1,37.0,30.40,WSW,248,0.0,8.0,73,0.00,,,0.00,Wunderground v.1.15,2013-10-14 01:55:00,
2013-10-13 21:02:00,44.9,37.1,30.40,WSW,246,0.0,8.0,74,0.00,,,0.00,Wunderground v.1.15,2013-10-14 02:02:00,
2013-10-13 21:07:00,44.8,37.4,30.40,WSW,246,0.0,8.0,75,0.00,,,0.00,Wunderground v.1.15,2013-10-14 02:07:00,
2013-10-13 21:13:00,44.4,36.6,30.40,WSW,246,0.0,8.0,74,0.00,,,0.00,Wunderground v.1.15,2013-10-14 02:13:00,
2013-10-13 21:20:00,44.1,36.7,30.40,WSW,245,0.0,8.0,75,0.00,,,0.00,Wunderground v.1.15,2013-10-14 02:20:00,
2013-10-13 21:25:00,43.9,36.8,30.40,WSW,246,0.0,8.0,76,0.00,,,0.00,Wunderground v.1.15,2013-10-14 02:25:00,
2013-10-13 21:32:00,43.8,36.7,30.41,WSW,246,0.0,8.0,76,0.00,,,0.00,Wunderground v.1.15,2013-10-14 02:32:00,
2013-10-13 21:37:00,44.0,36.9,30.41,WSW,246,0.0,8.0,76,0.00,,,0.00,Wunderground v.1.15,2013-10-14 02:37:00,
2013-10-13 21:44:00,43.8,37.1,30.41,WSW,246,0.0,8.0,77,0.00,,,0.00,Wunderground v.1.15,2013-10-14 02:44:00,
2013-10-13 21:50:00,43.4,36.7,30.41,WSW,246,0.0,8.0,77,0.00,,,0.00,Wunderground v.1.15,2013-10-14 02:50:00,
2013-10-13 21:56:00,43.1,36.4,30.41,WSW,246,0.0,8.0,77,0.00,,,0.00,Wunderground v.1.15,2013-10-14 02:56:00,
2013-10-13 22:02:00,42.8,36.4,30.41,WSW,246,0.0,8.0,78,0.00,,,0.00,Wunderground v.1.15,2013-10-14 03:02:00,
2013-10-13 22:08:00,42.5,36.1,30.41,WSW,246,0.0,8.0,78,0.00,,,0.00,Wunderground v.1.15,2013-10-14 03:08:00,
2013-10-13 22:14:00,42.3,36.3,30.41,WSW,246,0.0,8.0,79,0.00,,,0.00,Wunderground v.1.15,2013-10-14 03:14:00,
2013-10-13 22:20:00,42.2,36.2,30.41,WSW,246,0.0,8.0,79,0.00,,,0.00,Wunderground v.1.15,2013-10-14 03:20:00,
2013-10-13 22:26:00,42.0,36.6,30.41,WSW,246,0.0,8.0,81,0.00,,,0.00,Wunderground v.1.15,2013-10-14 03:26:00,
2013-10-13 22:32:00,41.9,36.5,30.41,WSW,246,0.0,8.0,81,0.00,,,0.00,Wunderground v.1.15,2013-10-14 03:32:00,
2013-10-13 22:38:00,41.6,36.5,30.41,WSW,246,0.0,8.0,82,0.00,,,0.00,Wunderground v.1.15,2013-10-14 03:38:00,
2013-10-13 22:44:00,41.6,36.5,30.41,WSW,245,0.0,8.0,82,0.00,,,0.00,Wunderground v.1.15,2013-10-14 03:44:00,
2013-10-13 22:50:00,41.5,36.4,30.41,WSW,246,0.0,8.0,82,0.00,,,0.00,Wunderground v.1.15,2013-10-14 03:50:00,
2013-10-13 22:56:00,41.4,36.3,30.41,WSW,245,0.0,8.0,82,0.00,,,0.00,Wunderground v.1.15,2013-10-14 03:56:00,
2013-10-13 23:02:00,41.2,36.1,30.41,WSW,246,0.0,8.0,82,0.00,,,0.00,Wunderground v.1.15,2013-10-14 04:02:00,
2013-10-13 23:04:00,41.1,36.3,30.41,WSW,246,0.0,8.0,83,0.00,,,0.00,Wunderground v.1.15,2013-10-14 04:04:00,
2013-10-13 23:06:00,41.1,36.3,30.41,WSW,246,0.0,8.0,83,0.00,,,0.00,Wunderground v.1.15,2013-10-14 04:06:00,
2013-10-13 23:12:00,41.0,36.2,30.41,WSW,246,0.0,8.0,83,0.00,,,0.00,Wunderground v.1.15,2013-10-14 04:12:00,
2013-10-13 23:18:00,40.9,36.7,30.41,WSW,246,0.0,8.0,85,0.00,,,0.00,Wunderground v.1.15,2013-10-14 04:18:00,
2013-10-13 23:24:00,41.0,36.8,30.41,WSW,245,0.0,8.0,85,0.00,,,0.00,Wunderground v.1.15,2013-10-14 04:24:00,
2013-10-13 23:28:00,40.9,36.7,30.40,WSW,246,0.0,8.0,85,0.00,,,0.00,Wunderground v.1.15,2013-10-14 04:28:00,
2013-10-13 23:34:00,41.2,37.6,30.40,WSW,246,0.0,8.0,87,0.00,,,0.00,Wunderground v.1.15,2013-10-14 04:34:00,
2013-10-13 23:40:00,41.3,37.4,30.40,WSW,246,0.0,8.0,86,0.00,,,0.00,Wunderground v.1.15,2013-10-14 04:40:00,
2013-10-13 23:46:00,41.3,37.4,30.41,WSW,246,0.0,8.0,86,0.00,,,0.00,Wunderground v.1.15,2013-10-14 04:46:00,
2013-10-13 23:52:00,41.5,37.6,30.40,WSW,246,0.0,8.0,86,0.00,,,0.00,Wunderground v.1.15,2013-10-14 04:52:00,
2013-10-13 23:58:00,41.5,37.3,30.40,WSW,246,0.0,8.0,85,0.00,,,0.00,Wunderground v.1.15,2013-10-14 04:58:00,